Tracking 30009 objects as of 7-Dec-2024
HD Live streaming from Space Station
objects crossing your sky now

DELTA R/B(1)

Track DELTA R/B(1) now!
10-day predictions


NORAD ID: 25619
Int'l Code: 1999-003B
Perigee: 289.6 km
Apogee: 3,469.3 km
Inclination: 22.5 °
Period: 124.3 minutes
Semi major axis: 8250 km
RCS: 10.5824 m2 (large)
Launch date: February 7, 1999
Source: United States (US)
Launch site: AIR FORCE EASTERN TEST RANGE (AFETR)

Note: This is a ROCKET BODY
Your satellite tracking list
Your tracking list is empty




NASA's NSSDC Master Catalog

Two Line Element Set (TLE):
1 25619U 99003B   24342.58149996  .00034524 -69605-5  10006-2 0  9999
2 25619  22.4580 202.1296 1927006 252.8819  85.2538 11.58473557957635
Source of the keplerian elements: AFSPC